[[{"header":{"parameterUnit":"m.s-1","parameterCategory":1,"la1":30.2992,"la2":30.254,"lo1":-89.0895,"lo2":-89.0443,"dy":0.0025,"dx":0.0025,"nx":19,"ny":19,"refTime":"2026-05-04T09:00:00:Z","depth":0,"parameterNumber":2,"parameterNumberName":"U-component_of_WINDS"},"data":[0,0,0,2.6206,2.6209,2.6372,2.6373,2.6607,2.6609,0,0,0,0,0,0,0,0,0,0,0,2.6173,2.6175,2.6205,2.621,2.6372,2.6373,2.6606,2.6609,0,0,0,0,0,0,0,0,0,0,0,2.6171,2.6174,2.6177,2.6211,2.6372,2.6373,2.6606,2.6474,0,0,0,0,0,0,0,0,0,0,2.6312,2.6295,2.6173,2.6177,2.6212,2.6372,2.6373,2.6467,2.6482,2.6544,0,2.6602,0,2.661,2.6626,2.6627,0,0,0,2.6199,2.6283,2.6313,2.6177,2.6213,2.6372,2.6296,2.6475,2.6492,2.6564,2.6605,2.6613,2.6614,2.6628,2.6629,2.7023,2.7025,0,0,2.619,2.621,2.6302,2.6325,2.6301,2.6291,2.6301,2.6485,2.6532,2.6606,2.6619,2.6617,2.663,2.6632,2.702,2.7023,0,0,0,2.6171,2.6204,2.6229,2.6316,2.6344,2.6296,2.6308,2.6524,2.653,2.6621,2.662,2.6631,2.6635,2.7018,2.7021,2.7159,0,0,0,2.6165,2.6193,2.6226,2.624,2.6341,2.6436,2.6343,2.6517,2.6538,2.6619,2.6631,2.6637,2.7015,2.702,2.715,2.7222,0,0,0,2.6157,2.6192,2.6221,2.6241,2.6311,2.6432,2.6449,2.6521,2.6538,2.6628,2.6638,2.7013,2.7019,2.7141,2.7208,2.7333,0,0,0,2.6153,2.634,2.6223,2.6432,2.631,2.6516,2.6447,2.6599,2.6692,2.6633,2.7016,2.7021,2.7139,2.7199,2.7324,2.7443,2.7494,0,0,2.64,2.637,2.6491,2.6392,2.6623,2.6489,2.6741,2.6807,2.6796,2.6948,2.6957,2.7153,2.7207,2.7331,2.7769,2.781,0,0,0,2.6577,2.6664,2.6721,2.6811,2.6866,2.692,2.6944,2.6969,2.7097,2.6878,2.723,2.7261,2.7333,2.739,2.7424,2.7486,2.7047,2.7047,2.7046,2.6957,2.6934,2.7133,2.7131,2.7218,2.7243,2.7313,2.735,2.73,2.7384,2.743,2.7698,2.7765,2.7791,2.7855,2.7489,2.7489,2.749,2.749,2.7318,2.7439,2.737,2.7538,2.7514,2.7655,2.7686,2.7647,2.7776,2.7662,2.7724,2.7604,2.7836,2.7891,2.75,2.7499,2.7497,2.7496,2.7496,2.7566,2.7621,2.7647,2.7776,2.7877,2.7867,2.7995,2.7967,2.7941,2.8003,2.8049,2.8047,2.8043,2.8026,2.8027,2.8028,2.8029,2.803,2.803,2.7814,2.7839,2.795,2.8025,2.808,2.8148,2.8175,2.8229,2.8281,2.825,2.8251,2.8195,2.7862,2.778,2.8045,2.8042,2.804,2.8039,2.8038,2.8193,2.8103,2.8274,2.833,2.8416,2.852,2.8482,2.8593,2.8633,2.8697,2.8627,2.8385,2.8353,2.8325,2.8258,2.863,2.863,2.863,2.863,2.8404,2.8384,2.8554,2.8644,2.8729,2.8713,2.8909,2.8932,2.8942,2.8965,2.8907,2.8814,2.8787,2.8771,2.8733,2.867,2.9139,2.9139,2.914,2.8637,2.8624,2.8797,2.8805,2.887,2.8927,2.9111,2.9219,2.921,2.916,2.8984,2.8962,2.8812,2.8764,2.8711,2.8654,2.8537,0,0]},{"header":{"parameterUnit":"m.s-1","parameterCategory":1,"la1":30.2992,"la2":30.254,"lo1":-89.0895,"lo2":-89.0443,"dy":0.0025,"dx":0.0025,"nx":19,"ny":19,"refTime":"2026-05-04T09:00:00:Z","depth":0,"parameterNumber":3,"parameterNumberName":"V-component_of_WINDS"},"data":[0,0,0,-0.3384,-0.338,-0.3209,-0.3208,-0.2987,-0.2985,0,0,0,0,0,0,0,0,0,0,0,-0.3438,-0.3437,-0.3384,-0.338,-0.3209,-0.3208,-0.2988,-0.2985,0,0,0,0,0,0,0,0,0,0,0,-0.3439,-0.3437,-0.3436,-0.3379,-0.3209,-0.3208,-0.2988,-0.3117,0,0,0,0,0,0,0,0,0,0,-0.3283,-0.3338,-0.3438,-0.3436,-0.3379,-0.3209,-0.3208,-0.3123,-0.3109,-0.3066,0,-0.3033,0,-0.3006,-0.2971,-0.297,0,0,0,-0.3376,-0.335,-0.3301,-0.3435,-0.3377,-0.321,-0.3285,-0.3115,-0.3099,-0.3047,-0.3029,-0.3021,-0.3002,-0.2969,-0.2968,-0.2743,-0.2742,0,0,-0.3385,-0.3408,-0.3312,-0.3291,-0.3323,-0.3291,-0.328,-0.3105,-0.3086,-0.3028,-0.3016,-0.2999,-0.2968,-0.2966,-0.2743,-0.2742,0,0,0,-0.3415,-0.3415,-0.337,-0.33,-0.327,-0.3286,-0.3273,-0.3093,-0.3077,-0.3013,-0.2996,-0.2967,-0.2964,-0.2744,-0.2743,-0.2722,0,0,0,-0.3421,-0.3432,-0.3375,-0.3387,-0.3273,-0.318,-0.3266,-0.3089,-0.3069,-0.2997,-0.2967,-0.2962,-0.2745,-0.2744,-0.2725,-0.2707,0,0,0,-0.3448,-0.3436,-0.3413,-0.3388,-0.3316,-0.3183,-0.3156,-0.3085,-0.3058,-0.297,-0.2961,-0.2746,-0.2744,-0.2727,-0.2711,-0.2653,0,0,0,-0.3482,-0.3396,-0.3413,-0.3309,-0.3318,-0.3174,-0.3157,-0.3048,-0.297,-0.2966,-0.2745,-0.2743,-0.2728,-0.2713,-0.2655,-0.2606,-0.2589,0,0,-0.3385,-0.3385,-0.3322,-0.3332,-0.3191,-0.3198,-0.3051,-0.2957,-0.2925,-0.2804,-0.2798,-0.2724,-0.2711,-0.2653,-0.2489,-0.2475,0,0,0,-0.3298,-0.3253,-0.321,-0.3139,-0.3068,-0.3002,-0.2929,-0.2893,-0.279,-0.287,-0.2688,-0.268,-0.2645,-0.2619,-0.2608,-0.2574,-0.2734,-0.2734,-0.2734,-0.319,-0.3159,-0.3051,-0.2998,-0.2928,-0.2854,-0.2792,-0.2731,-0.2717,-0.2675,-0.2637,-0.2542,-0.2514,-0.2505,-0.2471,-0.2611,-0.2611,-0.2611,-0.2611,-0.3042,-0.2971,-0.2957,-0.2848,-0.2813,-0.2718,-0.2641,-0.2635,-0.2538,-0.2568,-0.2535,-0.2566,-0.2491,-0.2459,-0.2609,-0.2609,-0.261,-0.261,-0.261,-0.2965,-0.2925,-0.2887,-0.278,-0.27,-0.2648,-0.2558,-0.2529,-0.25,-0.2469,-0.2424,-0.2424,-0.2417,-0.245,-0.245,-0.245,-0.2449,-0.2449,-0.2449,-0.2899,-0.2856,-0.2786,-0.2703,-0.2653,-0.2582,-0.2506,-0.2454,-0.2388,-0.2374,-0.2373,-0.2361,-0.2492,-0.2524,-0.2443,-0.2444,-0.2445,-0.2445,-0.2446,-0.2755,-0.2783,-0.2674,-0.2624,-0.2523,-0.2444,-0.241,-0.2306,-0.2259,-0.2214,-0.221,-0.2313,-0.2308,-0.2317,-0.2343,-0.222,-0.222,-0.222,-0.222,-0.2687,-0.2684,-0.2565,-0.2486,-0.2406,-0.2365,-0.2236,-0.2176,-0.2116,-0.2084,-0.2098,-0.2131,-0.2141,-0.213,-0.2143,-0.2166,-0.2001,-0.2001,-0.2001,-0.2594,-0.2582,-0.2481,-0.2428,-0.2347,-0.2276,-0.2154,-0.206,-0.1998,-0.1991,-0.2057,-0.2066,-0.2118,-0.2138,-0.2129,-0.215,-0.2192,0,0]}]]